Regional Weather Roundup
Issued by NWS

Home | Current Version | Previous Version | Graphics & Text | Print | Product List | Glossary On
Versions: 1 2 3 4 5 6 7 8 9 10 11 12 13 14 15 16 17 18 19 20 21 22 23 24 25 26 27 28 29 30 31 32 33 34 35 36 37 38 39 40 41 42 43 44 45 46 47 48 49 50
000
ASUS43 KOAX 312102
RWRNE

WEATHER ROUNDUP FOR NEBRASKA
NATIONAL WEATHER SERVICE OMAHA NE
400 PM CDT TUE MAY 31 2016

NOTES: SATELLITE DATA IS BEING USED TO AUGMENT CLOUD COVER ABOVE
       12000 FEET.
       "FAIR" INDICATES FEW OR NO CLOUDS BELOW 12,000 FEET WITH NO
       SIGNIFICANT WEATHER AND/OR OBSTRUCTIONS TO VISIBILITY.

  * THESE STATIONS DO NOT REPORT WEATHER SUCH AS RAIN...SNOW OR FOG.

NEZ001>004-019>022-054>056-312200-
NEBRASKA PANHANDLE

CITY           SKY/WX    TMP DP  RH WIND       PRES   REMARKS
SCOTTSBLUFF    MOSUNNY   71  38  29 W15G24    30.04F
ALLIANCE       PTSUNNY   66  40  38 NW13      30.02F
CHADRON        MOSUNNY   72  30  21 NW20G35   30.01R
SIDNEY         MOSUNNY   64  41  42 VRB6      30.08F
$$

NEZ057>060-069>072-079>082-312200-
SOUTHWEST NEBRASKA

CITY           SKY/WX    TMP DP  RH WIND       PRES   REMARKS
NORTH PLATTE   MOSUNNY   69  50  50 NW9       30.02F
IMPERIAL       MOSUNNY   69  46  43 N10       30.04F
LEXINGTON      SUNNY     70  49  46 NW9       30.00S
MCCOOK         SUNNY     72  44  36 N5        30.01F
OGALLALA       PTSUNNY   67  45  43 W9        30.04F
$$

NEZ005>010-023>029-035>040-094-312200-
NORTH CENTRAL NEBRASKA

CITY           SKY/WX    TMP DP  RH WIND       PRES   REMARKS
VALENTINE      SUNNY     73  33  23 W25G63    29.93F
AINSWORTH      MOSUNNY   71  39  31 W18G31    29.95F
BROKEN BOW     CLOUDY    70  44  39 NW13      29.99F
ORD            MOSUNNY   72  39  30 W12       29.95F
$$

NEZ041-046>049-061>064-073>077-083>087-312200-
SOUTH CENTRAL NEBRASKA

CITY           SKY/WX    TMP DP  RH WIND       PRES   REMARKS
GRAND ISLAND   CLOUDY    74  41  30 N5        29.97F
HASTINGS       PTSUNNY   72  46  39 N8        29.97F
HEBRON         CLOUDY    73  56  55 N10G18    29.95F
HOLDREGE       SUNNY     71  42  35 N6        29.99F
KEARNEY *      MOSUNNY   72  43  35 N8        29.99F
YORK           SUNNY     72  48  43 N9        29.96F
$$

NEZ011>018-030>034-042>045-312200-
NORTHEAST NEBRASKA

CITY           SKY/WX    TMP DP  RH WIND       PRES   REMARKS
NORFOLK        SUNNY     72  46  39 CALM      29.93F
ALBION         CLOUDY    73  45  36 W7        29.95F
FREMONT        MOSUNNY   74  51  42 N7        29.93F
TEKAMAH        SUNNY     77  52  41 N12G17    29.91F
WAYNE          CLOUDY    72  52  49 NW9       29.93F
$$

NEZ050>053-065>068-078-088>093-312200-
SOUTHEAST NEBRASKA

CITY           SKY/WX    TMP DP  RH WIND       PRES   REMARKS
LINCOLN        PTSUNNY   76  56  49 N8        29.94F
OMAHA EPPLEY   CLOUDY    76  59  55 NW12      29.91F
BEATRICE       MOSUNNY   73  58  59 NW8       29.94F
FALLS CITY     LGT RAIN  77  62  59 N7        29.89S
NEBRASKA CITY  PTSUNNY   75  60  61 N10       29.93R
PLATTSMOUTH    CLOUDY    74  60  61 N7        29.92F
$$

NEZ044-045-051>053-067-312200-
OMAHA AREA

CITY           SKY/WX    TMP DP  RH WIND       PRES   REMARKS
OMAHA EPPLEY   CLOUDY    76  59  55 NW12      29.91F
FREMONT        MOSUNNY   74  51  42 N7        29.93F
MILLARD        CLOUDY    74  57  55 NW10      29.91F
PLATTSMOUTH    CLOUDY    74  60  61 N7        29.92F
WAHOO          FAIR      76  48  36 N9        29.93F
$$




USA.gov is the U.S. government's official web portal to all federal, state and local government web resources and services.